Location: Gleizolles
(44.4833°N, 6.7667°E)
Time: 03:53:35
(UTC+00:00)

X-37B - Pass Details

Date: 12 December 2021
Orbit: 334 x 337 km, 45.0° (Epoch: 11 January)

Event Time Altitude Azimuth Distance (km) Brightness Sun altitude
Rises 17:19:09 0° 268° (W) 2,103 5.9 -14.7°
Reaches altitude 10° 17:21:09 10° 269° (W) 1,267 4.4 -15.0°
Maximum altitude 17:23:59 78° 356° (N) 345 0.2 -15.5°
Enters shadow 17:24:37 49° 72° (ENE) 438 0.4 -15.6°
